GW5531 Weather Reports


time (UTC)temp
C
wind
direction
speed
KPH
gust
KPH
rain 1hr
cm
rain 24hr
cm
rain mn
cm
humidity
%
barometer
mb
20260502225812 15 248 0.0 0.0 0.00 0.00 0.00 39 1016.5
20260502224813 15 258 0.0 0.0 0.00 0.00 0.00 41 1016.4
20260502223912 15 283 0.0 0.0 0.00 0.00 0.00 40 1016.5
20260502222012 16 280 0.0 0.0 0.00 0.00 0.00 35 1016.7
20260502221014 15 302 0.0 0.0 0.00 0.00 0.00 36 1016.8
20260502220013 16 261 0.0 0.0 0.00 0.00 0.00 34 1016.8
20260502215014 16 283 0.0 0.0 0.00 0.00 0.00 34 1017.0
20260502214013 16 258 0.0 0.0 0.00 0.00 0.00 33 1017.1
20260502213014 16 246 0.0 0.0 0.00 0.00 0.00 35 1017.2
20260502212012 15 284 0.0 0.0 0.00 0.00 0.00 37 1017.3
20260502211013 14 266 0.0 0.0 0.00 0.00 0.00 37 1017.5
20260502205012 14 276 0.0 0.0 0.00 0.00 0.00 37 1017.9
20260502204013 14 272 0.0 0.0 0.00 0.00 0.00 36 1018.0
20260502203013 15 251 0.0 0.0 0.00 0.00 0.00 36 1018.2
20260502202013 14 258 0.0 0.0 0.00 0.00 0.00 36 1018.3
20260502200012 13 275 0.0 0.0 0.00 0.00 0.00 37 1018.5
20260502194013 13 249 0.0 0.0 0.00 0.00 0.00 39 1019.1
20260502193012 13 212 0.0 0.0 0.00 0.00 0.00 37 1019.3
20260502192111 13 250 0.0 0.0 0.00 0.00 0.00 39 1019.3
20260502191114 12 249 0.0 0.0 0.00 0.00 0.00 39 1019.6
20260502190212 12 251 0.0 0.0 0.00 0.00 0.00 38 1019.6
20260502185311 12 206 0.0 0.0 0.00 0.00 0.00 38 1019.9
20260502183412 12 262 0.0 0.0 0.00 0.00 0.00 37 1020.1
20260502182413 12 228 0.0 0.0 0.00 0.00 0.00 37 1020.3
20260502163812 11 219 0.0 0.0 0.00 0.00 0.00 36 1022.3
20260502162911 11 269 0.0 0.0 0.00 0.00 0.00 35 1022.3
20260502161913 10 283 0.0 0.0 0.00 0.00 0.00 37 1022.4
20260502160912 10 249 0.0 0.0 0.00 0.00 0.00 38 1022.4
20260502151012 10 301 0.0 0.0 0.00 0.00 0.00 40 1023.5
20260502130314 3 180 0.0 0.0 0.00 0.00 0.00 89 1024.0
20260502122512 2 202 0.0 0.0 0.00 0.00 0.00 96 1024.0
20260502121513 1 247 0.0 0.0 0.00 0.00 0.00 97 1023.8
20260502120514 1 247 0.0 0.0 0.00 0.00 0.00 96 1023.7
20260502115512 0 225 0.0 0.0 0.00 0.00 0.00 97 1023.6
20260502113611 0 225 0.0 0.0 0.00 0.00 0.00 96 1023.4
20260502112710 -1 225 0.0 0.0 0.00 0.00 0.00 97 1023.3
20260502105812 0 225 0.0 0.0 0.00 0.00 0.00 95 1023.1
20260502104814 0 157 0.0 0.0 0.00 0.00 0.00 96 1023.3
20260502103912 0 157 0.0 0.0 0.00 0.00 0.00 96 1023.3
20260502102913 0 157 0.0 0.0 0.00 0.00 0.00 96 1023.1
20260502101913 0 157 0.0 0.0 0.00 0.00 0.00 95 1023.3
20260502100913 0 157 0.0 0.0 0.00 0.00 0.00 94 1023.3
20260502090912 -1 157 0.0 0.0 0.00 0.00 0.00 92 1023.3
20260502070813 0 157 0.0 0.0 0.00 0.00 0.00 88 1023.9
20260502065811 0 157 0.0 0.0 0.00 0.00 0.00 86 1024.0
20260502064811 0 157 0.0 0.0 0.00 0.00 0.00 86 1024.1
20260502063812 0 157 0.0 0.0 0.00 0.00 0.00 85 1024.2
20260502062815 0 157 0.0 0.0 0.00 0.00 0.00 87 1024.2
20260502061813 0 157 0.0 0.0 0.00 0.00 0.00 87 1024.2
20260502060812 0 180 0.0 0.0 0.00 0.00 0.00 89 1024.3
20260502055911 0 180 0.0 0.0 0.00 0.00 0.00 87 1024.2
20260502054011 0 180 0.0 0.0 0.00 0.00 0.00 85 1024.3
20260502052110 0 180 0.0 0.0 0.00 0.00 0.00 83 1024.5
20260502051113 0 180 0.0 0.0 0.00 0.00 0.00 81 1024.3
20260502050211 0 180 0.0 0.0 0.00 0.00 0.00 81 1024.3
20260502045214 0 180 0.0 0.0 0.00 0.00 0.00 81 1024.4
20260502044215 1 180 0.0 0.0 0.00 0.00 0.00 82 1024.5
20260502043212 1 180 0.0 0.0 0.00 0.00 0.00 80 1024.5
20260502042215 1 180 0.0 0.0 0.00 0.00 0.00 79 1024.5
20260502041215 0 180 0.0 0.0 0.00 0.00 0.00 74 1024.5
20260502040314 1 180 0.0 0.0 0.00 0.00 0.00 72 1024.5
20260502034314 1 180 0.0 0.0 0.00 0.00 0.00 67 1024.6
20260502033313 2 180 0.0 0.0 0.00 0.00 0.00 68 1024.7
20260502032412 2 180 0.0 0.0 0.00 0.00 0.00 65 1024.7
20260502031415 2 180 0.0 0.0 0.00 0.00 0.00 64 1024.7
20260502030415 2 180 0.0 0.0 0.00 0.00 0.00 60 1024.7
20260502025415 3 180 0.0 0.0 0.00 0.00 0.00 60 1024.7
20260502024416 3 180 0.0 0.0 0.00 0.00 0.00 57 1024.8
20260502023415 3 180 0.0 0.0 0.00 0.00 0.00 56 1024.8
20260502022415 3 157 0.0 0.0 0.00 0.00 0.00 56 1024.8
20260502021414 3 157 0.0 0.0 0.00 0.00 0.00 55 1024.9
20260502020415 4 157 0.0 0.0 0.00 0.00 0.00 53 1024.7
20260502015512 4 157 0.0 0.0 0.00 0.00 0.00 52 1024.8
20260502013613 5 175 0.0 0.0 0.00 0.00 0.00 52 1024.6
20260502012614 5 157 0.0 0.0 0.00 0.00 0.00 51 1024.5
20260502011713 6 159 0.0 0.0 0.00 0.00 0.00 50 1024.6
20260502010713 6 180 0.0 0.0 0.00 0.00 0.00 50 1024.5
20260502005712 6 158 0.0 0.0 0.00 0.00 0.00 48 1024.6
20260502004714 6 157 0.0 0.0 0.00 0.00 0.00 47 1024.5
20260502003715 6 180 0.0 0.0 0.00 0.00 0.00 47 1024.6
20260502002712 7 180 0.0 0.0 0.00 0.00 0.00 48 1024.5
20260502001714 7 157 0.0 0.0 0.00 0.00 0.00 48 1024.3
20260501235815 7 157 0.0 0.0 0.00 0.00 0.00 48 1024.4
20260501233012 8 177 0.0 0.0 0.00 0.00 0.00 47 1024.4
20260501232014 7 172 0.0 0.0 0.00 0.00 0.00 45 1024.4